DW7680 Weather Reports


time (UTC)temp
C
wind
direction
speed
KPH
gust
KPH
rain 1hr
cm
rain 24hr
cm
rain mn
cm
humidity
%
barometer
mb
20260510164502 17 63 12.9 24.1 0.00 0.00 0.00 42 1012.5
20260510163001 17 78 11.3 29.0 0.00 0.00 0.00 40 1012.4
20260510161503 18 94 14.5 27.4 0.00 0.00 0.00 38 1012.2
20260510160009 18 83 14.5 25.7 0.00 0.00 0.00 37 1012.0
20260510154502 18 32 9.7 25.7 0.00 0.00 0.00 36 1012.4
20260510153003 17 55 14.5 24.1 0.00 0.00 0.00 34 1012.3
20260510151502 17 355 6.4 22.5 0.00 0.00 0.00 34 1012.2
20260510150002 17 44 8.0 17.7 0.00 0.00 0.00 33 1011.8
20260510144619 16 26 6.4 16.1 0.00 0.00 0.00 32 1011.6
20260510143100 16 72 4.8 16.1 0.00 0.00 0.00 34 1011.8
20260510140100 16 22 3.2 9.7 0.00 0.00 0.00 33 1011.6
20260510140003 16 55 3.2 8.0 0.00 0.00 0.00 34 1011.6
20260510134501 15 231 1.6 14.5 0.00 0.00 0.00 34 1011.6
20260510133100 15 217 3.2 12.9 0.00 0.00 0.00 34 1011.0
20260510131603 13 24 9.7 22.5 0.00 0.00 0.00 36 1011.1
20260510130101 11 76 3.2 11.3 0.00 0.00 0.00 38 1010.8
20260510124614 10 259 6.4 12.9 0.00 0.00 0.00 40 1010.0
20260510123100 10 248 3.2 6.4 0.00 0.00 0.00 41 1009.8
20260510121600 9 271 6.4 11.3 0.00 0.00 0.00 42 1009.2
20260510120100 10 273 8.0 11.3 0.00 0.00 0.00 42 1009.0
20260510120002 10 261 8.0 11.3 0.00 0.00 0.00 42 1009.0
20260510114501 10 264 8.0 12.9 0.00 0.00 0.00 41 1009.0
20260510113004 10 267 9.7 17.7 0.00 0.00 0.00 40 1008.8
20260510111502 10 267 9.7 16.1 0.00 0.00 0.00 41 1008.8
20260510110004 10 272 8.0 11.3 0.00 0.00 0.00 42 1008.7
20260510104605 10 269 8.0 12.9 0.00 0.00 0.00 42 1008.6
20260510103002 9 277 4.8 11.3 0.00 0.00 0.00 43 1008.2
20260510101502 10 271 6.4 9.7 0.00 0.00 0.00 42 1008.3
20260510100005 10 265 8.0 16.1 0.00 0.00 0.00 40 1008.3
20260510094613 10 250 9.7 14.5 0.00 0.00 0.00 40 1008.3
20260510093120 10 262 9.7 17.7 0.00 0.00 0.00 39 1008.1
20260510091602 10 264 9.7 16.1 0.00 0.00 0.00 39 1008.1
20260510090100 11 259 8.0 16.1 0.00 0.00 0.00 39 1008.0
20260510090002 11 275 9.7 16.1 0.00 0.00 0.00 38 1008.0
20260510084501 11 268 8.0 14.5 0.00 0.00 0.00 38 1007.9
20260510083002 11 264 6.4 17.7 0.00 0.00 0.00 37 1007.8
20260510081502 11 263 8.0 14.5 0.00 0.00 0.00 37 1007.8
20260510080001 10 267 8.0 20.9 0.00 0.00 0.00 38 1008.0
20260510074600 11 272 9.7 14.5 0.00 0.00 0.00 36 1008.1
20260510073059 11 265 9.7 14.5 0.00 0.00 0.00 37 1008.2
20260510071600 10 259 9.7 16.1 0.00 0.00 0.00 37 1008.3
20260510070100 10 256 8.0 14.5 0.00 0.00 0.00 37 1008.3
20260510070003 10 257 9.7 14.5 0.00 0.00 0.00 37 1008.3
20260510064502 11 265 8.0 12.9 0.00 0.00 0.00 36 1008.3
20260510063003 11 263 8.0 16.1 0.00 0.00 0.00 35 1008.4
20260510061501 10 287 8.0 12.9 0.00 0.00 0.00 36 1008.6
20260510060005 10 273 4.8 11.3 0.00 0.00 0.00 38 1008.6
20260510054502 10 256 1.6 8.0 0.00 0.00 0.00 36 1008.5
20260510053008 11 279 3.2 11.3 0.00 0.00 0.00 37 1008.7
20260510051503 11 240 4.8 11.3 0.00 0.00 0.00 36 1008.9
20260510050004 11 360 4.8 11.3 0.00 0.00 0.00 35 1008.9
20260510044502 11 277 4.8 11.3 0.00 0.00 0.00 35 1008.9
20260510043002 11 273 4.8 8.0 0.00 0.00 0.00 35 1008.9
20260510041501 11 280 4.8 9.7 0.00 0.00 0.00 34 1008.9
20260510040002 12 266 3.2 6.4 0.00 0.00 0.00 33 1008.9
20260510034502 13 267 4.8 11.3 0.00 0.00 0.00 31 1008.9
20260510033002 13 258 4.8 9.7 0.00 0.00 0.00 30 1008.8
20260510031508 14 265 3.2 6.4 0.00 0.00 0.00 29 1008.6
20260510030002 15 279 3.2 4.8 0.00 0.00 0.00 27 1008.4
20260510024502 17 269 1.6 4.8 0.00 0.00 0.00 24 1008.3
20260510023004 18 275 1.6 4.8 0.00 0.00 0.00 22 1008.1
20260510021505 19 260 1.6 4.8 0.00 0.00 0.00 21 1007.7
20260510020002 20 282 3.2 4.8 0.00 0.00 0.00 20 1007.7
20260510014503 21 273 3.2 8.0 0.00 0.00 0.00 19 1007.4
20260510013002 22 250 4.8 12.9 0.00 0.00 0.00 18 1007.2
20260510011502 22 257 8.0 20.9 0.00 0.00 0.00 17 1007.2
20260510010004 23 226 4.8 19.3 0.00 0.00 0.00 17 1007.2
20260510004501 23 296 6.4 17.7 0.00 0.00 0.00 17 1007.3
20260510003001 23 245 11.3 20.9 0.00 0.00 0.00 16 1007.3
20260510001501 23 265 12.9 25.7 0.00 0.00 0.00 16 1007.3
20260510000004 24 298 11.3 24.1 0.00 0.00 0.00 15 1007.5
20260509234502 24 274 12.9 24.1 0.00 0.00 0.00 16 1007.4
20260509233001 24 273 14.5 25.7 0.00 0.00 0.00 16 1007.5
20260509231501 23 258 14.5 29.0 0.00 0.00 0.00 15 1007.3
20260509230005 24 221 12.9 33.8 0.00 0.00 0.00 16 1007.7
20260509224501 24 251 17.7 32.2 0.00 0.00 0.00 16 1007.7
20260509223002 25 290 14.5 29.0 0.00 0.00 0.00 14 1007.6
20260509221502 25 267 16.1 29.0 0.00 0.00 0.00 14 1007.8
20260509220005 25 283 12.9 25.7 0.00 0.00 0.00 15 1008.1
20260509214502 24 279 14.5 30.6 0.00 0.00 0.00 15 1008.0
20260509213003 25 257 12.9 24.1 0.00 0.00 0.00 15 1008.2
20260509211501 25 290 9.7 25.7 0.00 0.00 0.00 15 1008.5
20260509210003 25 243 9.7 25.7 0.00 0.00 0.00 16 1008.8
20260509204502 25 301 6.4 22.5 0.00 0.00 0.00 15 1008.8
20260509203004 25 262 9.7 24.1 0.00 0.00 0.00 15 1009.0
20260509201500 25 257 14.5 25.7 0.00 0.00 0.00 15 1009.1
20260509200004 25 275 14.5 38.6 0.00 0.00 0.00 16 1009.2
20260509194502 25 241 11.3 24.1 0.00 0.00 0.00 16 1009.1
20260509193002 25 311 6.4 16.1 0.00 0.00 0.00 16 1009.2
20260509191500 23 236 9.7 22.5 0.00 0.00 0.00 18 1009.4
20260509190001 23 255 4.8 12.9 0.00 0.00 0.00 17 1009.3
20260509184602 23 350 4.8 14.5 0.00 0.00 0.00 19 1009.5
20260509183103 23 51 1.6 11.3 0.00 0.00 0.00 19 1009.6
20260509181603 23 119 3.2 16.1 0.00 0.00 0.00 17 1010.0
20260509180003 23 98 1.6 16.1 0.00 0.00 0.00 15 1010.1
20260509174621 24 315 9.7 17.7 0.00 0.00 0.00 15 1010.4
20260509173102 23 332 6.4 0.0 6.99 0.00 0.00 15 1010.3
20260509171601 23 257 1.6 20.9 0.00 0.00 0.00 15 1010.5
20260509170109 23 221 8.0 17.7 0.00 0.00 0.00 17 1010.5
20260509170005 23 261 8.0 17.7 0.00 0.00 0.00 17 1010.5